This is the latest recevied weather packets stored in our database for station/object AB4KY. If no packets are shown the sender has not sent any weather packets the latest 10 day(s).
| Time | Temp. | Humidity | Pressure | Rain* | Wind** | Luminosity | Snow |
|---|---|---|---|---|---|---|---|
| 1778158221 | 7.78° C | 97% | 1013.9 hPa | 0 mm | - | 38 W/m² | - |
| 1778157918 | 7.22° C | 99% | 1014.2 hPa | 0 mm | - | 39 W/m² | - |
| 1778157616 | 6.67° C | 99% | 1014 hPa | 0 mm | - | 35 W/m² | - |
| 1778157314 | 6.67° C | 99% | 1013.8 hPa | 0 mm | - | 42 W/m² | - |
| 1778157010 | 6.67° C | 99% | 1013.8 hPa | 0 mm | - | 28 W/m² | - |
| 1778156705 | 6.67° C | 99% | 1014.3 hPa | 0 mm | - | 27 W/m² | - |
| 1778156401 | 6.67° C | 99% | 1014.2 hPa | 0 mm | - | 29 W/m² | - |
| 1778156096 | 6.11° C | 99% | 1014.3 hPa | 0 mm | - | 24 W/m² | - |
| 1778155788 | 5.56° C | 99% | 1014.3 hPa | 0 mm | - | 24 W/m² | - |
| 1778155484 | 5.56° C | 99% | 1014.2 hPa | 0 mm | - | 22 W/m² | - |
| 1778155181 | 5.56° C | 99% | 1014.3 hPa | 0 mm | - | 22 W/m² | - |
| 1778154877 | 5.56° C | 99% | 1014.2 hPa | 0 mm | - | 21 W/m² | - |
| 1778154573 | 5° C | 99% | 1014.1 hPa | 0 mm | - | 20 W/m² | - |
| 1778154269 | 5° C | 99% | 1014.1 hPa | 0 mm | - | 18 W/m² | - |
| 1778153967 | 5° C | 99% | 1014.1 hPa | 0 mm | - | 17 W/m² | - |
| 1778153664 | 5° C | 99% | 1014.2 hPa | 0 mm | - | 16 W/m² | - |
| 1778153361 | 5° C | 99% | 1014.1 hPa | 0 mm | - | 15 W/m² | - |
| 1778153059 | 5° C | 99% | 1013.9 hPa | 0 mm | - | 15 W/m² | - |
| 1778152756 | 4.44° C | 99% | 1014 hPa | 0 mm | - | 12 W/m² | - |
| 1778152453 | 4.44° C | 99% | 1013.9 hPa | 0 mm | - | 10 W/m² | - |
| 1778152149 | 4.44° C | 99% | 1013.8 hPa | 0 mm | - | 9 W/m² | - |
| 1778151845 | 4.44° C | 99% | 1013.8 hPa | 0 mm | - | 7 W/m² | - |
| 1778151542 | 4.44° C | 99% | 1014 hPa | 0 mm | - | 6 W/m² | - |
| 1778151239 | 4.44° C | 99% | 1013.8 hPa | 0 mm | - | 2 W/m² | - |
| 1778150935 | 4.44° C | 99% | 1013.8 hPa | 0 mm | - | 1 W/m² | - |
* Rain latest hour (hover to see other rain measurements)
** Current wind speed in m/s (hover to see current wind gust speed)